TRA771 UNKL-USSS

Flight info

Callsign TRA771
Flight time 2h 23m
Altitude 46000
Route UNKL N0524F460 APRU2F APRUS B800 ADONI R372 NH N992 AKERA T764 REPSA SOPU6S USSS
Aircraft C750/L-SDE2E3FGIJ1RWYZ/L

Departure

Time 2026-05-06 07:21
Airport Krasnoyarsk International Airport (UNKL)

Arrival

Time 2026-05-06 09:45
Airport Koltsovo Airport (USSS)
Time Latitude Longitude Altitude Speed Heading
2026-05-06 07:16 56.18139 92.47824 947 ft 0 kts 23°
2026-05-06 07:19 56.18143 92.47831 947 ft 0 kts 68°
2026-05-06 07:19 56.18122 92.47877 947 ft 12 kts 132°
2026-05-06 07:19 56.18060 92.48004 947 ft 19 kts 133°
2026-05-06 07:20 56.17918 92.48229 947 ft 35 kts 154°
2026-05-06 07:20 56.17704 92.48419 947 ft 33 kts 148°
2026-05-06 07:20 56.17532 92.48668 946 ft 31 kts 137°
2026-05-06 07:20 56.17387 92.48980 946 ft 39 kts 115°
2026-05-06 07:21 56.17310 92.49134 946 ft 15 kts 300°
2026-05-06 07:21 56.17499 92.48426 948 ft 119 kts 293°
2026-05-06 07:21 56.17907 92.46733 1188 ft 153 kts 292°
2026-05-06 07:21 56.18363 92.45092 2157 ft 150 kts 292°
2026-05-06 07:22 56.18786 92.43243 2760 ft 176 kts 286°
2026-05-06 07:22 56.19257 92.41018 3288 ft 205 kts 288°
2026-05-06 07:22 56.19848 92.38505 3867 ft 232 kts 290°
2026-05-06 07:22 56.20526 92.35698 4531 ft 252 kts 291°
2026-05-06 07:23 56.21207 92.32808 5726 ft 250 kts 290°
2026-05-06 07:23 56.21526 92.29699 6673 ft 256 kts 274°
2026-05-06 07:23 56.21632 92.26508 7811 ft 257 kts 274°
2026-05-06 07:23 56.21788 92.23277 8974 ft 260 kts 275°
2026-05-06 07:24 56.21956 92.20003 10019 ft 266 kts 275°
2026-05-06 07:24 56.22114 92.16625 10565 ft 285 kts 275°
2026-05-06 07:24 56.22281 92.12899 10779 ft 313 kts 275°
2026-05-06 07:24 56.22465 92.08845 11092 ft 332 kts 275°
2026-05-06 07:25 56.22654 92.04728 12015 ft 331 kts 275°
2026-05-06 07:25 56.22840 92.00626 12778 ft 335 kts 275°
2026-05-06 07:25 56.23028 91.96417 13578 ft 339 kts 275°
2026-05-06 07:25 56.23216 91.92178 14307 ft 341 kts 275°
2026-05-06 07:26 56.23405 91.87894 15050 ft 343 kts 275°
2026-05-06 07:26 56.23593 91.83605 15789 ft 345 kts 275°
2026-05-06 07:26 56.23780 91.79280 16520 ft 347 kts 275°
2026-05-06 07:26 56.23965 91.74985 17291 ft 350 kts 275°
2026-05-06 07:27 56.24153 91.70586 18121 ft 353 kts 275°
2026-05-06 07:27 56.24340 91.66170 18855 ft 356 kts 275°
2026-05-06 07:27 56.24527 91.61716 19585 ft 358 kts 275°
2026-05-06 07:27 56.24714 91.57236 20312 ft 361 kts 275°
2026-05-06 07:28 56.24900 91.52718 21045 ft 364 kts 275°
2026-05-06 07:28 56.25087 91.48149 21769 ft 367 kts 276°
2026-05-06 07:28 56.25457 91.38961 23223 ft 373 kts 276°
2026-05-06 07:29 56.25643 91.34282 23873 ft 376 kts 276°
2026-05-06 07:29 56.25829 91.29577 24516 ft 377 kts 276°
2026-05-06 07:29 56.26011 91.24899 25142 ft 379 kts 276°
2026-05-06 07:29 56.26195 91.20142 25731 ft 381 kts 276°
2026-05-06 07:30 56.26378 91.15361 26339 ft 383 kts 276°
2026-05-06 07:30 56.26559 91.10563 26950 ft 385 kts 275°
2026-05-06 07:30 56.26737 91.05794 27544 ft 387 kts 275°
2026-05-06 07:30 56.26917 91.00945 28145 ft 389 kts 275°
2026-05-06 07:31 56.27039 90.97642 28553 ft 391 kts 275°
2026-05-06 07:31 56.27217 90.92740 29154 ft 394 kts 275°
2026-05-06 07:31 56.27392 90.87874 29737 ft 396 kts 275°
2026-05-06 07:31 56.27569 90.82907 30274 ft 399 kts 275°
2026-05-06 07:32 56.27745 90.77895 30704 ft 403 kts 275°
2026-05-06 07:32 56.27921 90.72838 31183 ft 405 kts 275°
2026-05-06 07:32 56.28094 90.67772 31871 ft 403 kts 275°
2026-05-06 07:32 56.28265 90.62736 32492 ft 403 kts 275°
2026-05-06 07:33 56.28434 90.57706 33106 ft 403 kts 275°
2026-05-06 07:33 56.28600 90.52714 33770 ft 403 kts 275°
2026-05-06 07:33 56.28765 90.47677 34397 ft 403 kts 275°
2026-05-06 07:33 56.28929 90.42613 34906 ft 405 kts 275°
2026-05-06 07:34 56.29089 90.37585 35403 ft 406 kts 275°
2026-05-06 07:34 56.29250 90.32481 35877 ft 408 kts 275°
2026-05-06 07:34 56.29409 90.27367 36350 ft 409 kts 274°
2026-05-06 07:34 56.29564 90.22299 36839 ft 411 kts 274°
2026-05-06 07:35 56.29720 90.17146 37324 ft 412 kts 274°
2026-05-06 07:35 56.29874 90.11965 37821 ft 413 kts 274°
2026-05-06 07:35 56.30027 90.06782 38310 ft 415 kts 274°
2026-05-06 07:35 56.30178 90.01569 38797 ft 416 kts 274°
2026-05-06 07:36 56.30325 89.96421 39200 ft 417 kts 274°
2026-05-06 07:36 56.30472 89.91199 39629 ft 418 kts 274°
2026-05-06 07:36 56.30617 89.85963 40043 ft 419 kts 274°
2026-05-06 07:36 56.30761 89.80703 40473 ft 420 kts 274°
2026-05-06 07:37 56.30903 89.75433 40886 ft 422 kts 274°
2026-05-06 07:37 56.31042 89.70150 41309 ft 423 kts 274°
2026-05-06 07:37 56.31180 89.64855 41714 ft 424 kts 274°
2026-05-06 07:37 56.31317 89.59515 42131 ft 425 kts 274°
2026-05-06 07:38 56.31450 89.54229 42545 ft 426 kts 274°
2026-05-06 07:38 56.31583 89.48854 42975 ft 427 kts 274°
2026-05-06 07:38 56.31713 89.43506 43385 ft 428 kts 274°
2026-05-06 07:38 56.31839 89.38202 43789 ft 428 kts 274°
2026-05-06 07:39 56.31965 89.32831 44182 ft 430 kts 274°
2026-05-06 07:39 56.32089 89.27448 44571 ft 430 kts 274°
2026-05-06 07:39 56.32211 89.22041 44918 ft 431 kts 273°
2026-05-06 07:39 56.32330 89.16643 45268 ft 431 kts 273°
2026-05-06 07:40 56.32448 89.11231 45615 ft 431 kts 273°
2026-05-06 07:40 56.32562 89.05846 45934 ft 429 kts 273°
2026-05-06 07:40 56.32792 88.94979 45968 ft 443 kts 274°
2026-05-06 07:41 56.34109 88.84015 45971 ft 455 kts 290°
2026-05-06 07:41 56.36428 88.73242 45981 ft 467 kts 291°
2026-05-06 07:42 56.38748 88.62204 45979 ft 477 kts 290°
2026-05-06 07:42 56.41150 88.50854 45962 ft 487 kts 290°
2026-05-06 07:43 56.43555 88.39344 45969 ft 490 kts 290°
2026-05-06 07:43 56.45963 88.27800 45967 ft 494 kts 290°
2026-05-06 07:44 56.48380 88.16119 45957 ft 497 kts 290°
2026-05-06 07:44 56.50789 88.04422 45954 ft 499 kts 290°
2026-05-06 07:45 56.53206 87.92612 45961 ft 500 kts 290°
2026-05-06 07:45 56.55612 87.80787 45952 ft 500 kts 290°
2026-05-06 07:46 56.58013 87.68916 45947 ft 500 kts 290°
2026-05-06 07:46 56.60381 87.57137 45944 ft 500 kts 290°
2026-05-06 07:47 56.62758 87.45245 45936 ft 500 kts 289°
2026-05-06 07:47 56.65121 87.33349 45934 ft 500 kts 289°
2026-05-06 07:48 56.67476 87.21421 45933 ft 500 kts 289°
2026-05-06 07:48 56.69812 87.09519 45927 ft 501 kts 289°
2026-05-06 07:49 56.72143 86.97567 45921 ft 501 kts 289°
2026-05-06 07:49 56.74451 86.85661 45919 ft 501 kts 289°
2026-05-06 07:50 56.76761 86.73673 45914 ft 501 kts 289°
2026-05-06 07:50 56.79058 86.61674 45918 ft 501 kts 289°
2026-05-06 07:51 56.81350 86.49628 45910 ft 501 kts 289°
2026-05-06 07:51 56.83613 86.37659 45908 ft 501 kts 288°
2026-05-06 07:52 56.85885 86.25567 45901 ft 502 kts 288°
2026-05-06 07:52 56.88130 86.13545 45908 ft 502 kts 288°
2026-05-06 07:53 56.90376 86.01435 45900 ft 502 kts 288°
2026-05-06 07:53 56.92609 85.89322 45899 ft 502 kts 288°
2026-05-06 07:54 56.94817 85.77271 45902 ft 502 kts 288°
2026-05-06 07:54 56.97031 85.65103 45898 ft 502 kts 288°
2026-05-06 07:55 56.99233 85.52926 45894 ft 502 kts 288°
2026-05-06 07:55 57.01407 85.40828 45898 ft 502 kts 288°
2026-05-06 07:56 57.03582 85.28642 45895 ft 502 kts 287°
2026-05-06 07:56 57.05739 85.16473 45895 ft 502 kts 287°
2026-05-06 07:57 57.07894 85.04235 45890 ft 503 kts 287°
2026-05-06 07:57 57.10037 84.91985 45898 ft 502 kts 287°
2026-05-06 07:58 57.12166 84.79734 45894 ft 502 kts 287°
2026-05-06 07:58 57.14109 84.67449 45879 ft 502 kts 284°
2026-05-06 07:59 57.15819 84.54965 45885 ft 503 kts 284°
2026-05-06 07:59 57.17570 84.42471 45884 ft 503 kts 284°
2026-05-06 08:00 57.19280 84.29934 45879 ft 503 kts 283°
2026-05-06 08:00 57.20981 84.17494 45873 ft 503 kts 283°
2026-05-06 08:01 57.22673 84.04946 45878 ft 503 kts 283°
2026-05-06 08:01 57.24349 83.92450 45868 ft 503 kts 283°
2026-05-06 08:02 57.26022 83.79850 45889 ft 504 kts 283°
2026-05-06 08:02 57.27682 83.67253 45891 ft 504 kts 283°
2026-05-06 08:03 57.29321 83.54709 45883 ft 504 kts 283°
2026-05-06 08:03 57.30955 83.42092 45876 ft 504 kts 283°
2026-05-06 08:04 57.32569 83.29525 45874 ft 504 kts 283°
2026-05-06 08:04 57.34179 83.16878 45875 ft 504 kts 283°
2026-05-06 08:05 57.35769 83.04279 45887 ft 504 kts 282°
2026-05-06 08:05 57.37354 82.91604 45888 ft 504 kts 282°
2026-05-06 08:06 57.38926 82.78922 45890 ft 504 kts 282°
2026-05-06 08:06 57.40473 82.66331 45889 ft 503 kts 282°
2026-05-06 08:07 57.42016 82.53652 45883 ft 503 kts 282°
2026-05-06 08:07 57.43548 82.40960 45883 ft 503 kts 282°
2026-05-06 08:08 57.45057 82.28332 45879 ft 503 kts 282°
2026-05-06 08:08 57.46562 82.15629 45886 ft 503 kts 282°
2026-05-06 08:09 57.48052 82.02929 45882 ft 503 kts 282°
2026-05-06 08:09 57.49530 81.90216 45888 ft 503 kts 282°
2026-05-06 08:10 57.50988 81.77552 45887 ft 503 kts 282°
2026-05-06 08:10 57.52443 81.64797 45887 ft 503 kts 281°
2026-05-06 08:11 57.53874 81.52129 45887 ft 503 kts 281°
2026-05-06 08:11 57.55304 81.39346 45889 ft 503 kts 281°
2026-05-06 08:12 57.56719 81.26568 45891 ft 503 kts 281°
2026-05-06 08:12 57.58114 81.13845 45893 ft 504 kts 281°
2026-05-06 08:13 57.59504 81.01040 45882 ft 504 kts 281°
2026-05-06 08:13 57.60883 80.88222 45887 ft 504 kts 281°
2026-05-06 08:14 57.62248 80.75389 45889 ft 504 kts 281°
2026-05-06 08:14 57.63594 80.62605 45888 ft 505 kts 281°
2026-05-06 08:15 57.64935 80.49733 45891 ft 505 kts 281°
2026-05-06 08:15 57.66280 80.36829 45887 ft 505 kts 281°
2026-05-06 08:16 57.67605 80.23972 45886 ft 505 kts 280°
2026-05-06 08:16 57.68921 80.11055 45883 ft 505 kts 280°
2026-05-06 08:17 57.70218 79.98208 45891 ft 505 kts 280°
2026-05-06 08:17 57.71507 79.85280 45884 ft 505 kts 280°
2026-05-06 08:18 57.72786 79.72321 45887 ft 505 kts 280°
2026-05-06 08:18 57.73802 79.59368 45895 ft 505 kts 278°
2026-05-06 08:19 57.74800 79.46335 45900 ft 505 kts 278°
2026-05-06 08:19 57.75775 79.33288 45902 ft 506 kts 278°
2026-05-06 08:20 57.76578 79.22443 45904 ft 505 kts 278°
2026-05-06 08:20 57.77687 79.07248 45908 ft 506 kts 277°
2026-05-06 08:21 57.78474 78.96302 45904 ft 506 kts 277°
2026-05-06 08:21 57.79395 78.83307 45903 ft 506 kts 277°
2026-05-06 08:22 57.80309 78.70215 45906 ft 506 kts 277°
2026-05-06 08:22 57.81210 78.57124 45907 ft 506 kts 277°
2026-05-06 08:23 57.82097 78.44018 45910 ft 506 kts 277°
2026-05-06 08:23 57.82966 78.30974 45911 ft 506 kts 277°
2026-05-06 08:24 57.83827 78.17847 45916 ft 506 kts 277°
2026-05-06 08:24 57.84674 78.04712 45911 ft 506 kts 277°
2026-05-06 08:25 57.85502 77.91671 45922 ft 506 kts 277°
2026-05-06 08:25 57.86324 77.78507 45916 ft 506 kts 277°
2026-05-06 08:26 57.87124 77.65452 45918 ft 506 kts 276°
2026-05-06 08:26 57.87917 77.52305 45917 ft 506 kts 276°
2026-05-06 08:27 57.88697 77.39136 45918 ft 506 kts 276°
2026-05-06 08:27 57.89459 77.26043 45918 ft 506 kts 276°
2026-05-06 08:28 57.90210 77.12882 45920 ft 506 kts 276°
2026-05-06 08:28 57.90944 76.99796 45927 ft 505 kts 276°
2026-05-06 08:29 57.91670 76.86590 45926 ft 505 kts 276°
2026-05-06 08:29 57.92380 76.73424 45930 ft 505 kts 276°
2026-05-06 08:30 57.93073 76.60336 45925 ft 505 kts 276°
2026-05-06 08:30 57.93757 76.47122 45930 ft 505 kts 276°
2026-05-06 08:31 57.94422 76.34033 45935 ft 505 kts 276°
2026-05-06 08:31 57.95078 76.20839 45932 ft 505 kts 275°
2026-05-06 08:32 57.95721 76.07649 45938 ft 505 kts 275°
2026-05-06 08:32 57.96344 75.94553 45934 ft 505 kts 275°
2026-05-06 08:33 57.96959 75.81354 45934 ft 505 kts 275°
2026-05-06 08:33 57.97610 75.68165 45934 ft 505 kts 276°
2026-05-06 08:34 57.98605 75.48444 45934 ft 505 kts 275°
2026-05-06 08:35 57.99254 75.35247 45938 ft 505 kts 275°
2026-05-06 08:35 57.99881 75.22041 45939 ft 505 kts 275°
2026-05-06 08:36 58.00494 75.08882 45940 ft 505 kts 275°
2026-05-06 08:36 58.01094 74.95733 45939 ft 505 kts 275°
2026-05-06 08:37 58.01681 74.82500 45946 ft 505 kts 275°
2026-05-06 08:37 58.02257 74.69275 45939 ft 505 kts 275°
2026-05-06 08:38 58.02813 74.56124 45940 ft 505 kts 275°
2026-05-06 08:38 58.03362 74.42873 45940 ft 505 kts 274°
2026-05-06 08:39 58.03891 74.29718 45943 ft 505 kts 274°
2026-05-06 08:39 58.04412 74.16474 45944 ft 505 kts 274°
2026-05-06 08:40 58.04914 74.03317 45949 ft 505 kts 274°
2026-05-06 08:40 58.05407 73.90064 45947 ft 505 kts 274°
2026-05-06 08:41 58.05884 73.76825 45949 ft 505 kts 274°
2026-05-06 08:41 58.06346 73.63661 45951 ft 504 kts 274°
2026-05-06 08:42 58.06797 73.50406 45951 ft 504 kts 274°
2026-05-06 08:42 58.07231 73.37251 45953 ft 504 kts 274°
2026-05-06 08:43 58.07652 73.24054 45950 ft 504 kts 273°
2026-05-06 08:43 58.08062 73.10796 45951 ft 504 kts 273°
2026-05-06 08:44 58.08457 72.97551 45948 ft 504 kts 273°
2026-05-06 08:44 58.08837 72.84357 45948 ft 504 kts 273°
2026-05-06 08:45 58.09206 72.71070 45949 ft 504 kts 273°
2026-05-06 08:45 58.09559 72.57871 45945 ft 504 kts 273°
2026-05-06 08:46 58.09907 72.44697 45949 ft 504 kts 273°
2026-05-06 08:46 58.10263 72.31429 45939 ft 504 kts 272°
2026-05-06 08:47 58.10590 72.18179 45944 ft 504 kts 272°
2026-05-06 08:47 58.10913 72.04905 45941 ft 504 kts 272°
2026-05-06 08:48 58.11214 71.91738 45941 ft 504 kts 272°
2026-05-06 08:48 58.11508 71.78448 45942 ft 504 kts 272°
2026-05-06 08:49 58.11783 71.65275 45935 ft 504 kts 272°
2026-05-06 08:49 58.12047 71.52008 45934 ft 504 kts 272°
2026-05-06 08:50 58.12298 71.38738 45935 ft 503 kts 272°
2026-05-06 08:50 58.12534 71.25500 45939 ft 503 kts 272°
2026-05-06 08:51 58.12755 71.12336 45935 ft 503 kts 271°
2026-05-06 08:51 58.12964 70.99085 45931 ft 503 kts 271°
2026-05-06 08:52 58.13158 70.85903 45932 ft 502 kts 271°
2026-05-06 08:52 58.13339 70.72674 45933 ft 502 kts 271°
2026-05-06 08:53 58.13507 70.59442 45928 ft 502 kts 271°
2026-05-06 08:53 58.13659 70.46316 45930 ft 501 kts 271°
2026-05-06 08:54 58.13799 70.33083 45931 ft 501 kts 271°
2026-05-06 08:54 58.13925 70.19937 45919 ft 501 kts 271°
2026-05-06 08:55 58.14037 70.06732 45917 ft 501 kts 271°
2026-05-06 08:55 58.14136 69.93616 45918 ft 500 kts 271°
2026-05-06 08:56 58.14221 69.80412 45916 ft 500 kts 270°
2026-05-06 08:56 58.14293 69.67229 45916 ft 500 kts 270°
2026-05-06 08:57 58.14351 69.54111 45906 ft 500 kts 270°
2026-05-06 08:57 58.14395 69.40928 45908 ft 500 kts 270°
2026-05-06 08:58 58.14426 69.27737 45904 ft 500 kts 270°
2026-05-06 08:58 58.14443 69.14655 45908 ft 500 kts 270°
2026-05-06 08:59 58.14447 69.01482 45905 ft 499 kts 270°
2026-05-06 08:59 58.14439 68.88325 45905 ft 499 kts 270°
2026-05-06 09:00 58.14417 68.75175 45898 ft 499 kts 270°
2026-05-06 09:00 58.14382 68.62001 45899 ft 499 kts 270°
2026-05-06 09:01 58.14333 68.48959 45889 ft 499 kts 269°
2026-05-06 09:01 58.14270 68.35790 45892 ft 499 kts 269°
2026-05-06 09:02 58.13950 68.22729 45888 ft 498 kts 264°
2026-05-06 09:02 58.13135 68.09679 45899 ft 499 kts 264°
2026-05-06 09:03 58.12350 67.96600 45900 ft 499 kts 264°
2026-05-06 09:03 58.11527 67.83623 45897 ft 499 kts 263°
2026-05-06 09:04 58.10705 67.70576 45888 ft 498 kts 263°
2026-05-06 09:04 58.09866 67.57630 45883 ft 498 kts 263°
2026-05-06 09:05 58.09011 67.44631 45889 ft 498 kts 263°
2026-05-06 09:05 58.08139 67.31609 45888 ft 499 kts 263°
2026-05-06 09:06 58.07259 67.18647 45887 ft 498 kts 263°
2026-05-06 09:06 58.06361 67.05643 45889 ft 498 kts 263°
2026-05-06 09:07 58.05456 66.92723 45885 ft 498 kts 263°
2026-05-06 09:07 58.04541 66.79762 45887 ft 498 kts 263°
2026-05-06 09:08 58.03642 66.66758 45883 ft 498 kts 263°
2026-05-06 09:08 58.02869 66.55967 45881 ft 498 kts 262°
2026-05-06 09:09 58.01941 66.43063 45880 ft 498 kts 262°
2026-05-06 09:09 58.00996 66.30124 45877 ft 498 kts 262°
2026-05-06 09:10 58.00041 66.17252 45877 ft 498 kts 262°
2026-05-06 09:10 57.99068 66.04306 45883 ft 498 kts 262°
2026-05-06 09:11 57.98083 65.91394 45880 ft 498 kts 262°
2026-05-06 09:11 57.97061 65.78471 45875 ft 498 kts 262°
2026-05-06 09:12 57.96035 65.65660 45875 ft 498 kts 262°
2026-05-06 09:12 57.94992 65.52771 45879 ft 498 kts 262°
2026-05-06 09:13 57.93930 65.39856 45871 ft 498 kts 262°
2026-05-06 09:13 57.92867 65.27058 45872 ft 498 kts 261°
2026-05-06 09:14 57.91783 65.14198 45872 ft 497 kts 261°
2026-05-06 09:14 57.90684 65.01310 45872 ft 497 kts 261°
2026-05-06 09:15 57.89582 64.88541 45861 ft 497 kts 261°
2026-05-06 09:15 57.88460 64.75705 45847 ft 497 kts 261°
2026-05-06 09:16 57.87326 64.62890 45844 ft 497 kts 261°
2026-05-06 09:16 57.86179 64.50080 45830 ft 494 kts 261°
2026-05-06 09:16 57.85613 64.43812 45133 ft 482 kts 261°
2026-05-06 09:17 57.85059 64.37717 44529 ft 466 kts 261°
2026-05-06 09:17 57.84525 64.31874 43916 ft 453 kts 261°
2026-05-06 09:17 57.83996 64.26115 43336 ft 440 kts 261°
2026-05-06 09:17 57.83482 64.20541 42779 ft 428 kts 261°
2026-05-06 09:18 57.82976 64.15093 42232 ft 418 kts 260°
2026-05-06 09:18 57.82558 64.09726 41690 ft 413 kts 262°
2026-05-06 09:18 57.82176 64.04398 41157 ft 413 kts 262°
2026-05-06 09:18 57.81782 63.99030 40617 ft 418 kts 262°
2026-05-06 09:19 57.81374 63.93571 40063 ft 425 kts 262°
2026-05-06 09:19 57.80968 63.88119 39508 ft 428 kts 262°
2026-05-06 09:19 57.80556 63.82583 38943 ft 429 kts 262°
2026-05-06 09:19 57.80140 63.77033 38330 ft 429 kts 262°
2026-05-06 09:20 57.79721 63.71515 37741 ft 425 kts 262°
2026-05-06 09:20 57.79302 63.66022 37186 ft 423 kts 262°
2026-05-06 09:20 57.78884 63.60560 36622 ft 423 kts 262°
2026-05-06 09:20 57.78465 63.55116 36063 ft 422 kts 262°
2026-05-06 09:21 57.78043 63.49663 35504 ft 421 kts 262°
2026-05-06 09:21 57.77625 63.44302 34956 ft 420 kts 262°
2026-05-06 09:21 57.77200 63.38886 34400 ft 419 kts 262°
2026-05-06 09:21 57.76775 63.33488 33851 ft 417 kts 262°
2026-05-06 09:22 57.76350 63.28129 33380 ft 416 kts 262°
2026-05-06 09:22 57.75921 63.22737 32819 ft 420 kts 262°
2026-05-06 09:22 57.75485 63.17295 32259 ft 423 kts 262°
2026-05-06 09:22 57.75050 63.11899 31707 ft 426 kts 262°
2026-05-06 09:23 57.74604 63.06397 31142 ft 429 kts 262°
2026-05-06 09:23 57.74153 63.00850 30573 ft 432 kts 262°
2026-05-06 09:23 57.73695 62.95271 29999 ft 433 kts 261°
2026-05-06 09:23 57.73239 62.89733 29416 ft 428 kts 261°
2026-05-06 09:24 57.72785 62.84260 28887 ft 423 kts 261°
2026-05-06 09:24 57.72254 62.78862 28298 ft 421 kts 256°
2026-05-06 09:24 57.71114 62.73826 27789 ft 419 kts 242°
2026-05-06 09:24 57.69401 62.69429 27277 ft 418 kts 232°
2026-05-06 09:25 57.67520 62.65377 26761 ft 416 kts 231°
2026-05-06 09:25 57.65617 62.61286 26226 ft 413 kts 231°
2026-05-06 09:25 57.63742 62.57210 25695 ft 410 kts 231°
2026-05-06 09:25 57.61911 62.53231 25179 ft 407 kts 231°
2026-05-06 09:26 57.60062 62.49246 24648 ft 404 kts 231°
2026-05-06 09:26 57.58226 62.45302 24141 ft 401 kts 231°
2026-05-06 09:26 57.56407 62.41389 23635 ft 399 kts 231°
2026-05-06 09:26 57.54598 62.37498 23083 ft 395 kts 231°
2026-05-06 09:27 57.52798 62.33639 22577 ft 392 kts 230°
2026-05-06 09:27 57.51014 62.29825 22084 ft 390 kts 230°
2026-05-06 09:27 57.49258 62.26076 21586 ft 387 kts 230°
2026-05-06 09:27 57.47481 62.22282 21091 ft 385 kts 231°
2026-05-06 09:28 57.45725 62.18539 20594 ft 383 kts 231°
2026-05-06 09:28 57.43975 62.14813 20098 ft 381 kts 231°
2026-05-06 09:28 57.42262 62.11168 19623 ft 378 kts 231°
2026-05-06 09:28 57.40532 62.07493 19139 ft 376 kts 231°
2026-05-06 09:29 57.38808 62.03839 18655 ft 374 kts 231°
2026-05-06 09:29 57.37098 62.00226 18176 ft 371 kts 230°
2026-05-06 09:29 57.35154 61.97063 17612 ft 373 kts 216°
2026-05-06 09:29 57.32811 61.95102 17161 ft 377 kts 200°
2026-05-06 09:30 57.30209 61.94460 16677 ft 381 kts 183°
2026-05-06 09:30 57.27573 61.95118 16223 ft 381 kts 172°
2026-05-06 09:30 57.24968 61.96090 15737 ft 380 kts 171°
2026-05-06 09:30 57.22383 61.97050 15244 ft 377 kts 172°
2026-05-06 09:31 57.19804 61.97823 14715 ft 372 kts 178°
2026-05-06 09:31 57.17272 61.97275 14216 ft 362 kts 198°
2026-05-06 09:31 57.15027 61.95409 13758 ft 356 kts 215°
2026-05-06 09:31 57.13199 61.92410 13271 ft 350 kts 231°
2026-05-06 09:32 57.11951 61.88614 12818 ft 345 kts 248°
2026-05-06 09:32 57.11263 61.84414 12393 ft 341 kts 256°
2026-05-06 09:32 57.10673 61.80186 11944 ft 339 kts 256°
2026-05-06 09:32 57.10083 61.76058 11502 ft 332 kts 255°
2026-05-06 09:33 57.09506 61.72106 11069 ft 308 kts 255°
2026-05-06 09:33 57.08972 61.68431 10670 ft 287 kts 255°
2026-05-06 09:33 57.08474 61.64975 10299 ft 271 kts 255°
2026-05-06 09:33 57.08001 61.61713 9955 ft 257 kts 255°
2026-05-06 09:34 57.07550 61.58612 9615 ft 245 kts 255°
2026-05-06 09:34 57.07122 61.55678 9292 ft 235 kts 255°
2026-05-06 09:34 57.06701 61.52797 8991 ft 232 kts 255°
2026-05-06 09:34 57.06282 61.49928 8696 ft 232 kts 255°
2026-05-06 09:35 57.05863 61.47072 8386 ft 231 kts 254°
2026-05-06 09:35 57.05444 61.44221 8085 ft 230 kts 255°
2026-05-06 09:35 57.05027 61.41382 7783 ft 229 kts 254°
2026-05-06 09:35 57.04610 61.38590 7483 ft 228 kts 253°
2026-05-06 09:36 57.03824 61.36087 7127 ft 228 kts 230°
2026-05-06 09:36 57.02736 61.33990 6888 ft 227 kts 228°
2026-05-06 09:36 57.01657 61.31866 6592 ft 227 kts 229°
2026-05-06 09:36 57.00590 61.29739 6286 ft 225 kts 228°
2026-05-06 09:37 56.99541 61.27662 5977 ft 224 kts 229°
2026-05-06 09:37 56.98481 61.25572 5690 ft 223 kts 228°
2026-05-06 09:37 56.97805 61.24240 5489 ft 222 kts 229°
2026-05-06 09:37 56.96752 61.22168 5202 ft 221 kts 228°
2026-05-06 09:38 56.95708 61.20110 4918 ft 221 kts 228°
2026-05-06 09:38 56.94650 61.18039 4640 ft 222 kts 227°
2026-05-06 09:38 56.93361 61.16491 4245 ft 225 kts 203°
2026-05-06 09:38 56.91872 61.15824 4034 ft 223 kts 196°
2026-05-06 09:39 56.90348 61.15198 3759 ft 224 kts 197°
2026-05-06 09:39 56.88828 61.14541 3465 ft 224 kts 197°
2026-05-06 09:39 56.87317 61.13886 3148 ft 222 kts 197°
2026-05-06 09:39 56.85806 61.13237 2849 ft 223 kts 197°
2026-05-06 09:40 56.84286 61.12641 2593 ft 224 kts 192°
2026-05-06 09:40 56.82758 61.12594 2581 ft 219 kts 183°
2026-05-06 09:40 56.79683 61.12606 2625 ft 225 kts 184°
2026-05-06 09:41 56.78106 61.12586 2645 ft 228 kts 184°
2026-05-06 09:41 56.76553 61.12313 2564 ft 224 kts 200°
2026-05-06 09:41 56.75256 61.10813 2583 ft 220 kts 227°
2026-05-06 09:41 56.74501 61.08436 2582 ft 217 kts 252°
2026-05-06 09:42 56.74447 61.05713 2582 ft 215 kts 279°
2026-05-06 09:42 56.75101 61.03186 2572 ft 224 kts 300°
2026-05-06 09:42 56.75540 61.00554 2393 ft 220 kts 267°
2026-05-06 09:42 56.75103 60.97968 2312 ft 214 kts 246°
2026-05-06 09:43 56.74550 60.95396 2103 ft 223 kts 251°
2026-05-06 09:43 56.74242 60.92631 1858 ft 220 kts 265°
2026-05-06 09:43 56.74211 60.90206 1729 ft 161 kts 273°
2026-05-06 09:43 56.74306 60.88534 1584 ft 129 kts 274°
2026-05-06 09:44 56.74430 60.86994 1418 ft 121 kts 272°
2026-05-06 09:44 56.74466 60.85432 1124 ft 124 kts 270°
2026-05-06 09:44 56.74468 60.83916 1023 ft 117 kts 267°
2026-05-06 09:44 56.74472 60.82435 833 ft 117 kts 269°
2026-05-06 09:45 56.74475 60.81022 760 ft 102 kts 268°
2026-05-06 09:45 56.74477 60.80262 760 ft 38 kts 272°
2026-05-06 09:45 56.74477 60.79781 754 ft 37 kts 270°
2026-05-06 09:45 56.74481 60.79348 750 ft 21 kts 276°
2026-05-06 09:46 56.74579 60.79185 750 ft 22 kts 355°
2026-05-06 09:46 56.74727 60.79129 750 ft 22 kts 345°
2026-05-06 09:46 56.74771 60.79109 749 ft 0 kts 346°